Temperature
21 21 20 20 19 19 18 18 17 17 17 17 17 17 17 17 17 16 16 16 16 16 16 16 16 15 15 15 15 15 15 15 15 15 14 14 14 14 14 14 13 13 14
22 20 20 19 18 18 18 17 17 17 17 17 17 17 16 16 16 16 16 16 16 15 15 15 15 15 15 15 15 15 15 15 14 14 14 14 14 14 14 13 13 13 13
21 20 19 18 17 17 17 17 16 16 16 16 16 16 16 16 16 16 15 15 15 15 15 15 15 15 14 14 14 14 14 14 14 14 13 13 13 13 13 13 13 13 13
20 19 18 18 17 17 16 16 16 16 16 16 16 16 16 16 16 15 15 15 15 15 15 14 14 14 14 14 14 14 14 14 14 13 12 12 12 12 12 12 12 12 12
19 18 17 17 17 16 16 16 16 16 16 16 16 16 15 15 15 15 15 14 14 14 14 14 14 14 14 14 14 14 14 14 13 12 12 12 12 12 12 12 12 12 12
18 17 17 17 16 16 16 16 16 16 16 16 16 15 15 15 15 14 14 14 14 14 14 13 13 13 13 13 13 14 13 13 12 12 11 11 11 11 11 12 11 11 11
17 17 16 16 16 16 16 16 16 16 15 15 15 15 15 15 14 14 14 14 14 13 13 13 13 13 13 13 13 13 13 13 11 11 11 11 11 11 11 11 11 11 11
16 16 16 16 16 16 16 16 15 15 15 15 15 15 15 14 14 14 14 13 13 13 13 13 13 12 12 13 13 13 12 12 11 11 11 11 11 11 11 11 11 11 11
15 15 15 15 15 15 15 15 15 15 15 15 15 15 14 14 14 14 13 13 13 13 13 12 12 12 12 12 12 12 12 12 11 11 11 11 11 11 11 11 11 11 11
15 15 15 15 15 15 15 15 15 15 15 15 14 14 14 14 13 13 13 13 13 12 12 12 12 12 12 12 12 12 11 11 10 10 10 10 10 10 10 10 10 10 11
15 15 15 15 15 15 15 15 15 15 15 14 14 14 14 13 13 13 12 12 12 12 12 11 11 11 12 11 11 11 11 10 10 10 10 10 10 10 10 10 10 10 10
14 14 15 15 15 15 15 15 15 14 14 14 14 13 13 13 12 12 12 12 12 11 11 11 11 11 11 11 11 11 10 10 10 10 10 10 10 10 10 10 10 10 10
14 14 14 14 15 15 15 14 14 14 14 14 13 13 13 12 12 12 12 11 11 11 11 11 10 10 10 10 10 10 10 10 10 10 10 10 10 10 10 10 10 10 9
14 14 14 14 14 14 14 14 14 14 14 13 13 13 13 12 12 12 11 11 11 10 10 10 10 10 10 10 10 10 10 10 9 9 9 10 10 9 9 9 9 9 9
13 13 14 14 14 14 14 14 14 14 14 13 13 13 13 12 12 12 11 11 11 10 10 10 10 10 10 9 9 9 9 9 9 9 9 10 10 9 9 9 9 9 9
13 13 13 13 14 14 14 14 14 14 13 13 13 13 12 12 12 11 11 11 11 10 10 10 10 10 9 9 9 9 9 9 9 9 9 9 9 9 9 9 9 9 9
13 13 13 13 13 14 14 14 14 13 13 13 13 12 12 12 12 11 11 11 11 10 10 10 9 9 9 9 9 9 9 9 9 9 9 9 9 9 9 9 9 9 9
12 12 13 13 13 13 13 13 13 13 13 13 12 12 12 12 12 11 11 11 10 10 10 10 10 9 9 9 9 9 9 9 9 9 9 9 9 9 9 9 9 9 9
12 12 12 12 13 13 13 13 13 13 13 12 12 12 12 12 12 11 11 11 10 10 10 10 10 9 9 9 9 9 9 9 9 9 9 9 9 9 9 9 9 9 9
12 12 12 12 12 12 13 13 12 13 12 12 12 12 12 12 11 11 11 10 10 10 10 9 9 9 9 9 9 9 9 9 9 9 9 9 9 9 9 9 9 9 9
11 11 12 12 12 12 12 12 12 12 12 12 12 12 12 11 11 11 11 10 10 10 10 9 9 9 9 9 9 8 8 8 8 9 9 9 9 9 9 9 9 9 9
11 11 11 11 12 12 12 12 12 12 12 12 12 12 12 11 11 11 11 10 10 10 9 9 9 9 9 9 8 8 8 8 8 9 9 9 9 9 9 9 9 9 9
11 11 11 11 11 11 12 12 12 11 11 11 11 11 11 11 11 11 11 10 10 10 10 9 9 10 9 9 9 9 9 10 9 9 9 9 9 9 9 9 9 9 9
11 11 11 11 11 11 11 11 11 11 11 11 12 12 11 11 11 11 11 10 10 10 10 10 10 9 9 9 9 9 9 9 9 9 9 9 9 9 9 9 9 9 9
10 10 11 11 11 11 11 11 11 11 11 11 11 11 11 11 11 11 11 10 10 10 10 10 10 9 9 9 9 9 9 9 9 9 9 9 9 9 9 9 9 9 9
10 10 10 11 11 11 11 11 11 11 11 11 11 11 11 11 11 11 11 11 10 10 10 10 10 10 10 9 10 10 10 9 9 9 9 9 9 9 9 9 9 9 9
Wind_Speed
10 18 26 26 26 26 25 25 24 24 23 23 23 22 21 21 20 20 19 19 19 19 19 19 18 18 18 18 18 18 17 17 16 16 16 15 15 14 14 12 12 14 15
12 20 26 26 26 26 25 25 24 24 24 23 23 22 22 21 20 20 19 19 19 19 19 19 18 18 18 18 17 17 17 16 16 15 14 14 14 14 14 14 15 14 16
13 19 26 25 26 26 25 24 24 24 24 23 23 22 22 21 20 20 20 19 18 18 18 18 18 18 18 17 17 16 16 16 15 12 10 12 13 14 15 15 16 16 17
13 18 24 26 26 26 25 25 25 25 24 24 23 23 22 21 21 20 20 19 19 18 18 18 18 18 17 17 16 16 15 15 13 8 9 11 12 14 15 16 16 16 16
12 18 22 25 26 26 25 25 25 25 24 24 24 23 22 22 21 21 20 20 19 19 18 18 18 18 17 17 16 15 15 13 10 9 11 11 12 14 15 15 16 16 15
12 16 22 25 26 26 26 25 25 25 25 24 24 23 23 22 22 21 21 20 19 19 18 18 18 18 17 16 16 15 13 10 9 11 10 11 12 14 14 14 15 15 15
11 15 21 25 26 26 26 25 25 25 25 24 24 23 23 23 22 22 21 20 19 19 18 18 18 18 16 16 15 14 12 7 10 10 10 11 12 14 14 15 15 15 15
10 13 19 23 24 25 25 25 25 25 25 25 24 24 23 23 23 22 21 20 20 19 18 18 18 17 16 15 14 13 11 7 10 10 10 12 13 14 15 15 15 15 15
10 12 15 21 24 24 25 25 25 25 25 25 24 24 23 23 23 22 22 21 20 19 18 18 17 17 16 15 14 13 10 6 9 9 9 10 12 14 14 14 14 14 14
10 12 14 18 21 23 24 24 25 25 25 25 24 24 23 23 23 22 21 20 20 19 18 18 18 17 16 15 13 12 9 6 9 9 9 10 11 12 13 13 13 13 13
11 12 14 17 19 20 21 23 24 25 24 25 23 24 23 21 20 19 20 20 20 19 19 18 18 17 16 14 12 10 7 7 8 8 9 10 10 11 12 12 12 12 11
14 14 14 16 17 18 17 19 20 21 22 22 22 23 20 18 17 17 20 20 19 19 18 18 17 16 13 12 11 8 7 8 7 8 9 9 10 11 11 11 11 10 10
15 15 15 15 16 16 14 15 13 14 16 18 22 21 18 16 15 16 16 17 17 17 16 16 15 12 10 9 9 8 7 7 6 7 9 8 9 10 10 10 9 9 9
16 15 15 16 15 15 15 14 13 12 12 12 17 21 17 12 12 13 12 14 14 13 13 12 10 11 10 10 9 9 8 6 6 6 8 8 8 9 8 8 8 8 8
17 17 16 15 16 14 14 13 13 13 13 15 16 19 18 13 13 12 11 12 13 12 12 10 10 11 10 9 9 8 7 7 7 6 7 8 7 7 7 7 7 7 6
18 18 16 17 16 15 13 14 13 13 14 15 15 18 19 16 13 12 12 11 12 12 12 11 11 10 9 8 8 8 7 7 7 6 7 7 7 6 5 5 6 5 5
18 17 17 17 16 16 15 15 13 13 14 14 14 19 19 17 16 14 12 11 11 13 13 11 11 9 8 8 8 7 6 6 6 6 6 5 6 6 5 4 4 4 3
18 17 16 15 16 16 15 14 13 14 14 14 14 16 19 19 18 15 12 11 13 13 11 10 10 9 8 8 7 6 5 5 6 6 5 5 5 4 4 4 2 2 2
18 17 16 16 17 17 15 13 13 14 14 14 14 15 17 19 19 15 12 12 14 12 11 10 10 9 9 8 7 6 5 5 5 5 5 5 5 4 3 3 2 1 1
17 17 17 16 16 16 13 11 11 13 14 14 14 16 18 18 19 16 12 14 15 11 11 11 11 9 8 8 6 5 4 4 5 5 5 5 5 5 5 4 3 2 1
16 17 17 17 16 15 13 12 13 14 14 14 14 18 19 18 19 16 12 14 14 12 13 13 11 11 9 8 7 5 4 5 5 5 5 5 6 6 6 5 5 4 3
16 17 17 18 17 18 15 13 13 13 12 13 13 16 19 19 19 16 16 14 14 13 14 14 12 10 8 9 7 6 4 5 5 6 6 6 6 6 6 7 6 6 5
15 17 16 18 18 18 18 13 12 11 10 11 14 15 17 19 19 18 18 16 15 14 14 15 15 13 10 10 8 6 4 4 4 5 7 6 6 6 6 6 7 7 7
14 14 16 17 17 18 18 16 18 15 14 13 14 14 16 18 19 19 19 17 16 14 15 15 15 12 12 10 8 6 3 2 3 4 5 6 7 7 6 5 6 7 7
11 11 13 15 16 17 18 19 20 18 15 12 14 16 17 17 18 19 19 17 17 15 16 16 15 14 12 11 9 7 5 3 4 3 3 4 5 6 5 6 5 6 6
7 8 11 14 15 18 19 20 22 21 18 16 17 17 16 14 15 19 19 18 17 15 16 16 15 16 13 13 10 9 7 5 5 5 4 4 4 3 5 4 5 5 5
Wind_Direction
174 171 170 170 167 165 163 160 158 155 152 151 149 147 144 139 135 132 130 128 126 124 122 119 116 113 108 104 99 96 93 90 88 86 85 84 82 81 79 76 76 76 72
170 171 169 171 169 167 164 162 159 156 153 153 152 149 145 140 137 135 132 130 128 125 123 119 116 112 108 105 102 99 96 93 90 88 90 88 83 83 81 77 72 77 76
168 171 171 173 171 169 165 162 159 157 156 155 153 149 145 142 140 138 134 132 131 129 124 120 116 112 110 107 105 102 98 95 92 93 99 92 89 87 85 82 80 78 76
171 173 175 173 172 170 167 164 161 159 158 157 154 150 147 146 143 141 138 135 133 129 125 121 118 115 112 111 108 105 101 97 94 99 95 91 92 90 87 84 82 79 77
176 176 174 172 173 171 169 166 163 161 159 158 155 152 150 148 146 142 139 136 132 129 125 123 121 119 116 114 111 107 103 100 100 97 93 90 91 91 88 86 85 82 79
181 180 174 173 174 172 170 168 165 163 161 159 156 155 153 151 147 142 138 135 132 130 129 127 124 121 119 117 114 110 107 109 114 96 94 93 94 92 90 89 86 82 81
186 183 177 174 175 174 172 169 167 165 163 160 159 157 155 152 148 143 139 137 136 134 133 131 128 125 122 119 116 113 109 105 104 99 94 90 92 92 91 91 87 84 82
191 186 179 177 177 175 174 171 169 167 164 162 160 158 155 151 147 144 141 141 139 138 137 135 131 128 126 121 118 114 111 115 108 101 97 93 92 93 92 88 85 83 81
192 188 184 181 180 177 175 173 171 168 165 162 161 158 154 151 148 146 144 143 142 142 141 139 135 132 128 123 120 115 109 102 109 101 99 95 94 95 92 88 87 84 81
197 193 189 186 184 182 180 175 170 167 165 162 159 155 150 149 148 146 146 145 145 144 144 141 137 133 128 124 121 119 118 125 106 108 102 98 99 100 96 91 89 87 83
204 198 195 191 188 184 181 175 170 166 164 160 157 151 151 154 151 151 149 148 147 147 145 142 138 133 129 124 122 126 138 121 113 103 98 97 105 103 99 95 92 88 85
209 202 198 195 191 186 179 174 175 172 168 168 165 161 162 158 155 152 145 147 147 147 145 141 138 137 140 136 133 145 134 125 120 110 101 96 107 105 102 98 96 92 89
213 208 203 196 193 187 181 176 174 171 171 171 168 166 161 155 152 152 152 151 150 150 149 144 148 152 149 141 146 145 135 130 125 120 108 98 107 107 105 103 99 96 92
219 213 209 199 194 190 184 179 176 172 171 169 169 165 161 157 158 158 159 159 158 158 154 156 158 155 150 149 150 145 142 139 132 124 111 99 109 108 109 110 106 101 96
224 216 211 203 197 192 187 182 180 176 173 169 168 168 164 161 162 161 161 161 162 159 158 158 160 156 154 152 150 149 146 144 140 133 123 102 104 107 110 114 112 109 101
226 219 213 206 200 193 190 185 181 177 173 170 170 170 169 165 164 164 163 164 163 163 163 163 161 158 156 157 155 152 150 149 148 144 138 125 107 102 106 116 117 116 106
229 222 216 209 202 195 191 187 181 176 173 172 171 172 172 168 166 167 167 167 165 165 164 164 161 161 158 159 160 157 155 157 158 153 152 152 140 118 107 113 117 121 115
229 223 216 211 203 196 189 187 181 177 176 174 173 173 174 171 170 169 168 169 166 165 168 166 166 165 164 167 165 162 162 162 168 162 167 171 166 159 136 112 116 133 146
227 220 213 210 205 197 188 185 182 177 177 176 175 174 176 174 173 172 172 169 168 169 172 170 172 171 169 168 166 165 169 173 173 178 181 183 185 189 185 139 137 140 213
225 219 212 208 204 194 186 184 180 178 180 178 178 178 177 177 176 175 174 172 171 173 175 176 174 174 172 166 162 165 173 179 188 193 194 197 200 203 210 209 210 196 213
224 219 212 207 202 192 183 181 180 181 181 179 180 180 179 178 178 179 175 175 177 179 180 179 174 171 169 166 165 168 180 195 206 205 210 212 210 212 219 224 231 236 234
222 219 212 208 203 197 189 185 183 180 183 181 179 182 182 181 181 182 180 179 181 182 182 181 176 173 169 178 180 173 182 195 208 214 215 221 222 216 222 228 233 238 248
221 218 213 207 203 199 190 185 179 173 176 181 183 184 186 184 184 184 185 183 183 184 185 184 182 182 177 184 192 191 190 194 179 194 211 217 219 221 223 224 232 239 245
224 221 214 207 202 198 192 189 183 182 185 190 185 184 184 186 187 187 187 187 186 187 187 187 189 189 181 184 191 212 225 182 189 180 196 210 216 225 227 221 229 235 239
227 225 215 207 204 199 195 195 189 190 190 188 184 183 184 187 190 189 188 189 189 190 190 189 189 191 191 192 191 188 192 198 223 214 206 204 214 220 224 230 230 233 236
232 231 220 206 207 202 197 199 196 192 187 186 187 185 186 187 190 192 190 191 192 192 193 192 191 195 196 198 198 196 195 197 202 210 224 218 221 213 215 223 228 229 233
Height
1472 1474 1476 1479 1483 1486 1490 1493 1496 1499 1502 1505 1507 1509 1511 1513 1515 1517 1519 1521 1522 1524 1525 1525 1526 1527 1527 1528 1528 1528 1528 1529 1529 1529 1529 1529 1529 1529 1529 1529 1529 1529 1528
1471 1473 1475 1478 1482 1485 1489 1492 1496 1498 1501 1504 1507 1509 1512 1513 1515 1517 1519 1521 1522 1524 1525 1526 1527 1527 1528 1528 1529 1529 1529 1529 1530 1530 1530 1530 1530 1530 1530 1530 1530 1529 1529
1470 1472 1474 1477 1481 1484 1488 1492 1495 1498 1501 1504 1507 1509 1511 1513 1515 1517 1519 1521 1523 1524 1525 1526 1527 1528 1528 1529 1529 1529 1530 1530 1530 1531 1532 1532 1531 1531 1531 1531 1531 1530 1530
1470 1472 1474 1477 1480 1484 1487 1491 1494 1497 1500 1503 1506 1509 1511 1513 1515 1517 1519 1521 1522 1524 1525 1526 1527 1528 1528 1529 1530 1530 1530 1531 1531 1532 1534 1534 1533 1532 1532 1532 1532 1531 1531
1469 1471 1473 1476 1480 1483 1487 1490 1494 1497 1500 1503 1506 1508 1511 1513 1515 1517 1519 1520 1522 1524 1525 1526 1527 1528 1528 1529 1530 1531 1531 1532 1532 1534 1534 1535 1534 1534 1534 1533 1533 1533 1533
1469 1470 1472 1475 1479 1482 1486 1490 1493 1496 1499 1502 1505 1508 1510 1512 1515 1517 1518 1520 1522 1524 1525 1527 1527 1528 1529 1530 1531 1531 1532 1533 1534 1535 1536 1536 1536 1535 1535 1535 1535 1534 1534
1468 1470 1472 1474 1478 1482 1485 1489 1492 1495 1499 1501 1504 1507 1509 1512 1514 1516 1518 1520 1522 1524 1525 1527 1528 1529 1529 1530 1531 1532 1533 1534 1536 1536 1537 1537 1537 1537 1536 1536 1536 1536 1535
1466 1468 1471 1473 1477 1481 1484 1488 1491 1494 1497 1501 1504 1506 1509 1511 1513 1516 1518 1520 1522 1523 1525 1527 1528 1529 1530 1531 1532 1533 1534 1535 1536 1537 1538 1538 1538 1538 1538 1537 1537 1537 1536
1465 1467 1469 1472 1476 1479 1483 1486 1490 1493 1496 1500 1503 1505 1508 1511 1513 1515 1517 1519 1521 1523 1525 1527 1528 1529 1530 1531 1533 1534 1535 1536 1538 1538 1539 1539 1539 1539 1539 1538 1538 1538 1538
1463 1465 1468 1470 1474 1477 1481 1485 1488 1492 1495 1499 1502 1504 1507 1510 1512 1515 1517 1519 1521 1523 1525 1527 1528 1530 1531 1532 1533 1535 1536 1537 1539 1539 1540 1540 1540 1540 1540 1540 1540 1539 1539
1460 1462 1465 1468 1471 1474 1478 1482 1486 1490 1494 1497 1500 1503 1506 1509 1512 1514 1516 1518 1521 1523 1525 1527 1529 1530 1531 1533 1534 1535 1537 1539 1539 1540 1540 1540 1541 1541 1541 1540 1540 1540 1540
1456 1459 1461 1464 1467 1471 1475 1478 1483 1487 1491 1494 1498 1501 1505 1508 1510 1513 1515 1518 1520 1523 1525 1527 1529 1530 1532 1533 1534 1536 1538 1539 1540 1541 1541 1541 1541 1542 1541 1541 1541 1541 1540
1453 1455 1458 1460 1463 1467 1470 1474 1479 1483 1487 1491 1495 1498 1502 1505 1508 1512 1514 1517 1520 1522 1525 1526 1529 1531 1532 1533 1535 1537 1538 1539 1540 1541 1541 1542 1542 1542 1542 1542 1542 1542 1541
1449 1451 1453 1456 1459 1463 1467 1470 1475 1478 1483 1487 1491 1495 1499 1502 1506 1509 1513 1516 1518 1521 1523 1526 1528 1530 1532 1533 1535 1537 1538 1539 1541 1541 1542 1542 1542 1543 1543 1543 1542 1542 1542
1445 1446 1449 1452 1455 1459 1462 1466 1471 1474 1479 1483 1488 1491 1495 1499 1503 1507 1511 1514 1517 1519 1522 1524 1527 1529 1531 1533 1535 1536 1538 1539 1540 1541 1542 1542 1543 1543 1543 1543 1543 1543 1542
1439 1441 1444 1447 1450 1454 1458 1462 1466 1471 1475 1480 1484 1488 1492 1496 1500 1504 1508 1512 1515 1517 1520 1523 1526 1528 1531 1533 1534 1536 1537 1539 1540 1541 1542 1542 1543 1543 1543 1543 1543 1543 1543
1434 1436 1438 1442 1445 1449 1453 1457 1462 1466 1471 1476 1480 1485 1489 1493 1498 1502 1506 1509 1512 1516 1519 1522 1525 1527 1530 1532 1534 1535 1537 1538 1539 1540 1541 1542 1543 1543 1543 1543 1543 1543 1543
1428 1430 1433 1437 1440 1444 1448 1453 1457 1462 1467 1472 1477 1482 1486 1491 1495 1499 1503 1507 1510 1513 1517 1520 1523 1526 1528 1531 1533 1534 1536 1537 1539 1540 1541 1541 1542 1543 1543 1543 1543 1543 1542
1422 1425 1427 1431 1435 1439 1443 1447 1452 1457 1463 1468 1473 1478 1483 1488 1492 1496 1500 1504 1508 1511 1515 1518 1521 1524 1527 1529 1531 1533 1535 1536 1537 1538 1540 1540 1541 1542 1542 1542 1542 1542 1541
1416 1419 1421 1425 1429 1434 1438 1443 1447 1453 1458 1464 1469 1474 1479 1484 1489 1493 1497 1501 1505 1509 1512 1516 1519 1522 1525 1528 1530 1532 1534 1535 1536 1537 1538 1539 1540 1540 1541 1541 1541 1540 1540
1409 1412 1415 1419 1423 1428 1432 1436 1441 1447 1453 1458 1464 1470 1475 1480 1485 1489 1493 1497 1501 1505 1509 1513 1517 1520 1523 1526 1529 1531 1533 1534 1535 1536 1537 1537 1538 1538 1539 1539 1539 1539 1538
1403 1406 1410 1413 1417 1422 1426 1431 1437 1442 1448 1454 1460 1465 1471 1476 1481 1485 1489 1493 1498 1502 1507 1510 1513 1517 1520 1523 1526 1529 1532 1534 1533 1533 1534 1535 1536 1536 1536 1536 1536 1536 1536
1397 1400 1404 1407 1412 1416 1421 1427 1433 1438 1444 1449 1454 1460 1466 1471 1476 1481 1486 1490 1494 1499 1503 1506 1510 1513 1516 1520 1524 1527 1529 1530 1531 1532 1532 1533 1533 1534 1534 1534 1534 1534 1533
1392 1395 1399 1402 1406 1411 1416 1421 1425 1430 1435 1441 1448 1454 1461 1466 1472 1477 1482 1486 1490 1495 1499 1503 1507 1511 1514 1517 1520 1522 1525 1526 1528 1529 1530 1530 1531 1531 1531 1531 1531 1531 1530
1388 1390 1394 1397 1400 1405 1410 1415 1420 1425 1431 1438 1444 1450 1455 1461 1467 1472 1477 1481 1486 1490 1495 1499 1503 1507 1510 1514 1516 1519 1521 1523 1524 1526 1527 1528 1528 1528 1528 1528 1528 1528 1527
1384 1386 1389 1392 1396 1400 1405 1410 1414 1419 1426 1432 1438 1443 1449 1455 1461 1466 1471 1477 1481 1486 1490 1495 1499 1503 1507 1510 1513 1515 1518 1520 1521 1523 1525 1525 1526 1526 1525 1525 1525 1525 1524